Location: Hope
(40.9110°N, 74.9680°W)
Time: 05:39:50
(UTC-05:00)

Tiangong 2 - Pass Details

Date: 27 January 2019
Orbit: 380 x 390 km, 42.8° (Epoch: 21 February)

Event Time Altitude Azimuth Distance (km) Brightness Sun altitude
Exits shadow 05:37:18 45° 204° (SSW) 535 1.6 -18.5°
Maximum altitude 05:37:19 45° 204° (SSW) 535 1.6 -18.5°
Drops below altitude 10° 05:40:22 10° 130° (SE) 1,405 4.8 -17.9°
Sets 05:42:29 0° 124° (SE) 2,259 6.2 -17.5°
